Flag for Antigua and Barbuda Weather past 2 weeks in Saint John's, Antigua and Barbuda

Now
82 °F

Passing clouds.


Feels Like: 89 °F
Forecast: 80 / 86 °F
Wind: 9 mph from East

Location: Vc Bird International Antigua Airport

Current Time: Jul 31, 2014 at 8:10:25 PM

Latest Report: Jul 31, 2014 at 8:00 PM


Visibility: N/A

Pressure: 29.98 "Hg

Humidity: 79%

Dew point: 75 °F

Location of Saint John'sLocation

Historic Weather in Saint John's — Graph

°F

Saint John's temperature yesterday

Maximum temperature yesterday: 86 °F (at 12:00 PM)
Minimum temperature yesterday: 75 °F (at 6:00 AM)
Average temperature yesterday: 81 °F

Past Weeks' High & Low Weather Summary

 TemperatureHumidityPressure
High88 °F (Jul 25, 12:00 PM)89% (Jul 18, 7:00 AM)30.12 "Hg (Jul 18, 7:00 AM)
Low75 °F (Jul 30, 6:00 AM)55% (Jul 21, 3:00 PM)29.98 "Hg (Jul 24, 4:00 AM)
Average82 °F73%30.05 "Hg
* Reported Jul 16 6:00 PM — Jul 31 6:00 PM, Saint John's, Weather by CustomWeather, © 2014

Note: Actual official high and low records may vary slightly from our data, if they occured in-between our weather recording intervals... More about our weather records

Advertising

Saint John's weather history for previous 24 hours

 ConditionsComfort  
Time TempWeatherWind HumidityBarometerVisibility
6:00 PM
Jul 31
82 °FPartly sunny.10 mph74%29.98 "HgN/A
5:00 PM84 °FScattered clouds.12 mph70%29.98 "HgN/A
4:00 PM84 °FPartly sunny.12 mph70%29.98 "HgN/A
3:00 PM86 °FScattered clouds.12 mph66%29.98 "HgN/A
2:00 PM86 °FScattered clouds.12 mph66%29.98 "HgN/A
1:00 PM86 °FScattered clouds.13 mph66%30.01 "HgN/A
12:00 PM86 °FScattered clouds.13 mph62%30.01 "HgN/A
11:00 AM86 °FScattered clouds.13 mph66%30.04 "HgN/A
10:00 AM86 °FPassing clouds.14 mph62%30.01 "HgN/A
9:00 AM84 °FPassing clouds.12 mph70%30.01 "HgN/A
8:00 AM82 °FScattered clouds.12 mph74%30.04 "HgN/A
7:00 AM82 °FPassing clouds.10 mph70%30.01 "HgN/A
6:00 AM81 °FPassing clouds.8 mph74%30.01 "HgN/A
5:00 AM81 °FPassing clouds.7 mph74%30.01 "HgN/A
4:00 AM81 °FPassing clouds.9 mph74%29.98 "HgN/A
3:00 AM81 °FPassing clouds.7 mph79%30.01 "HgN/A
2:00 AM81 °FPassing clouds.7 mph79%30.01 "HgN/A
12:00 AM81 °FPassing clouds.8 mph74%30.04 "HgN/A
11:00 PM
Jul 30
81 °FPassing clouds.6 mph79%30.04 "HgN/A
10:00 PM81 °FPassing clouds.6 mph79%30.04 "HgN/A
9:00 PM79 °FPassing clouds.5 mph84%30.04 "HgN/A
8:00 PM79 °FPassing clouds.3 mph84%30.01 "HgN/A
Weather by CustomWeather, © 2014

See weather overviewHow to use our weather pages